Location: Unspecified
(57.6483°N, 3.3184°W)
Time: 09:48:32
(UTC+00:00)

BlueWalker 3 - Pass Details

Date: 27 January 2026
Orbit: 450 x 461 km, 53.2° (Epoch: 11 February)

Event Time Altitude Azimuth Distance (km) Brightness Sun altitude
Rises 20:14:45 0° 263° (W) 2,458 6.5 -29.8°
Reaches altitude 10° 20:16:58 10° 256° (WSW) 1,585 5.2 -30.1°
Enters shadow 20:17:36 14° 252° (WSW) 1,343 4.7 -30.2°
